#timestamp,LO_Frequency,Hit,StdDev 
1570136415.0,286047002.7,N
1570136415.9,286047002.7,N
1570136435.8,286047000.3,N
1570136455.6,286047000.2,N
1570136475.4,286047002.5,N
1570136495.3,286047001.3,N
1570136515.1,286047003.9,N
1570136535.9,286047001.8,N
1570136555.7,286047001.7,N
1570136575.5,286047001.7,N
1570136595.4,286047001.4,N
1570136615.2,286047004.3,N
1570136635.1,286047002.7,N
1570136636.0,286047002.7,N
1570136655.8,286047001.9,N
1570136675.6,286047001.7,N
1570136695.5,286047004.1,N
1570136715.3,286047003.7,N
1570136735.1,286047003.5,N
1570136755.9,286047002.9,N
1570136775.7,286047003.4,N
1570136795.6,286047002.9,N
1570136815.4,286047004.0,Y
1570136835.2,286047002.3,P
1570136855.1,286047000.5,P
1570136856.0,286047000.5,N
1570136875.8,286047001.0,N
1570136895.7,286047000.1,N
1570136915.5,286047000.9,N
1570136935.3,286047001.2,N
1570136955.2,286047000.9,N
1570136975.0,286047001.0,N
1570136975.9,286047001.0,N
1570136995.8,286047000.4,N
1570137015.6,286047000.2,N
1570137035.4,286047002.8,Y
1570137055.3,286046998.5,P
1570137075.1,286046998.1,N
1570137095.8,286046999.2,N
1570137115.7,286046998.4,N
1570137135.5,286046996.7,Y
1570137155.4,286046996.7,P
1570137175.2,286046999.0,N
1570137195.0,286046998.5,N
1570137195.9,286046998.5,N
1570137215.8,286046999.1,N
1570137235.6,286046997.2,Y
1570137255.5,286046999.1,P
1570137275.3,286046997.1,P
1570137295.1,286046996.7,P
1570137315.9,286046997.9,N
1570137335.7,286046996.2,Y
1570137355.6,286046997.0,P
1570137375.4,286046998.7,P
1570137395.2,286047000.3,N
1570137415.1,286047000.2,N
1570137416.0,286047000.2,N
1570137435.8,286046999.7,N
1570137455.7,286047000.5,N
1570137475.5,286046998.5,N
1570137495.3,286046998.3,N
1570137515.2,286046998.6,N
1570137535.0,286046999.3,N
1570137535.9,286046999.3,N
1570137555.8,286046998.7,N
1570137575.6,286046999.4,N
1570137595.4,286046999.4,N
1570137615.3,286046996.7,Y
1570137635.1,286046999.4,P
1570137655.8,286046998.5,P
1570137675.7,286047000.3,N
1570137695.5,286047000.9,N
1570137715.4,286046998.7,N
1570137735.2,286046997.1,Y
1570137755.0,286046996.9,P
1570137755.9,286046996.9,N
1570137775.8,286046997.1,N
1570137795.6,286046995.0,Y
1570137815.5,286046998.4,P
1570137835.3,286047001.2,N
1570137885.2,286046999.9,E
1570137895.1,286046999.8,N
1570137896.0,286046999.8,P
1570137915.8,286047002.4,P
1570137935.7,286047001.9,N
1570137955.5,286047001.4,N
1570137975.3,286047002.1,N
1570137995.2,286047001.7,N
1570138015.0,286047002.5,N
1570138015.9,286047002.5,N
1570138035.8,286047001.5,N
1570138055.6,286047002.1,N
1570138075.4,286047002.7,N
1570138095.3,286046999.9,N
1570138115.1,286047002.4,N
1570138135.8,286047002.4,N
1570138155.7,286047000.2,N
1570138175.5,286046999.7,N
1570138195.4,286047002.5,N
1570138215.2,286047002.1,N
1570138235.1,286047003.0,N
1570138236.0,286047003.0,N
1570138255.8,286047005.1,Y
1570138275.6,286047004.1,P
1570138295.5,286047003.2,N
1570138315.3,286047003.8,P
1570138335.2,286047003.4,Y
1570138355.9,286047000.5,P
1570138375.7,286047000.9,N
1570138395.6,286046999.1,N
1570138415.4,286046999.0,N
1570138435.3,286046997.4,N
1570138455.1,286046999.4,N
1570138456.0,286046999.4,N
1570138475.8,286046999.6,N
1570138495.7,286046998.5,N
1570138515.5,286047000.0,N
1570138535.3,286047000.2,N
1570138555.2,286047000.2,N
1570138575.0,286047001.2,N
1570138575.9,286047001.2,N
1570138595.1,286046998.8,N
1570138596.0,286046998.8,N
1570138615.8,286047001.0,N
1570138635.7,286047000.4,N
1570138655.5,286047001.5,N
1570138675.3,286046999.9,N
1570138695.2,286047000.0,N
1570138715.0,286047000.5,N
1570138715.9,286047000.5,N
1570138735.8,286047000.6,N
1570138755.6,286046998.5,N
1570138775.5,286047000.0,N
1570138795.3,286047000.3,N
1570138815.1,286047000.5,N
1570138835.9,286046999.8,N
1570138855.7,286047002.5,N
1570138875.5,286047002.5,N
1570138895.4,286047000.3,N
1570138915.2,286047000.4,N
1570138935.1,286046998.5,N
1570138936.0,286046998.5,N
1570138955.8,286046998.4,N
1570138975.6,286046998.3,N
1570138995.5,286046999.0,N
1570139015.3,286046998.6,N
1570139035.2,286047000.7,N
1570139055.9,286047000.8,N
1570139075.7,286047000.8,N
1570139095.6,286046998.6,N
1570139115.4,286046998.8,N
1570139135.2,286047002.8,N
1570139155.1,286047002.8,N
1570139156.0,286047002.8,N
1570139175.1,286047002.2,N
1570139176.0,286047002.2,N
1570139195.8,286047002.0,N
1570139215.6,286047001.1,N
1570139235.5,286046998.8,N
1570139255.3,286046997.0,N
1570139275.2,286046998.5,N
1570139295.9,286046999.3,N
1570139315.7,286046998.5,N
1570139335.6,286046999.5,N
1570139355.4,286046994.9,Y
1570139375.3,286046995.0,P
1570139395.1,286046997.7,N
1570139396.0,286046997.7,N
1570139415.8,286046997.1,N
1570139435.7,286046997.9,N
1570139455.5,286046997.9,N
1570139475.3,286046999.6,N
1570139495.2,286046997.3,N
1570139515.0,286046998.0,N
1570139515.9,286046998.0,N
1570139565.8,286046998.6,E
1570139575.7,286047000.6,N
1570139595.6,286046999.8,P
1570139615.4,286047002.8,P
1570139635.2,286047001.3,N
1570139655.1,286047000.1,N
1570139656.0,286047000.1,N
1570139675.8,286047000.7,N
1570139695.6,286046998.2,N
1570139715.5,286047000.0,N
1570139735.3,286047001.5,N
1570139755.2,286047003.9,Y
1570139775.0,286047004.0,P
1570139775.9,286047004.0,N
1570139795.7,286047004.2,N
1570139815.6,286047003.1,N
1570139835.4,286047003.2,N
1570139855.3,286047001.8,N
1570139875.1,286047002.1,N
1570139895.8,286046999.9,N
1570139915.7,286046998.3,N
1570139935.5,286047001.1,N
1570139955.4,286047001.1,N
1570139975.2,286046999.8,N
1570139995.0,286047000.0,N
1570139995.9,286047000.0,N
